This is the latest recevied weather packets stored in our database for station/object K5KVN. If no packets are shown the sender has not sent any weather packets the latest 10 day(s).
| Time | Temp. | Humidity | Pressure | Rain* | Wind** | Luminosity | Snow |
|---|---|---|---|---|---|---|---|
| 1788162142 | 26.11° C | 60% | 1016.8 hPa | 0 mm | - | - | - |
| 1788161542 | 26.11° C | 61% | 1016.9 hPa | 0 mm | - | - | - |
| 1788160941 | 25° C | 63% | 1017.1 hPa | 0 mm | - | - | - |
| 1788160343 | 24.44° C | 65% | 1017.2 hPa | 0 mm | - | - | - |
| 1788159742 | 25° C | 63% | 1017.2 hPa | 0 mm | - | - | - |
| 1788159201 | 25° C | 62% | 1017.1 hPa | 0 mm | - | - | - |
| 1788158600 | 25.56° C | 60% | 1017.2 hPa | 0 mm | - | - | - |
| 1788157940 | 26.11° C | 59% | 1017.2 hPa | 0 mm | - | - | - |
| 1788157399 | 26.11° C | 58% | 1017.2 hPa | 0 mm | - | - | - |
| 1788156737 | 26.67° C | 57% | 1017.3 hPa | 0 mm | - | - | - |
| 1788156135 | 26.67° C | 56% | 1017.3 hPa | 0 mm | - | - | - |
| 1788155536 | 26.67° C | 56% | 1017.3 hPa | 0 mm | - | - | - |
| 1788154935 | 27.22° C | 56% | 1017.2 hPa | 0 mm | - | - | - |
| 1788154336 | 27.78° C | 54% | 1017.1 hPa | 0 mm | - | - | - |
| 1788153797 | 27.78° C | 54% | 1017.1 hPa | 0 mm | - | - | - |
| 1788153196 | 27.78° C | 54% | 1017 hPa | 0 mm | - | - | - |
| 1788152536 | 27.78° C | 54% | 1016.9 hPa | 0 mm | - | - | - |
| 1788151935 | 28.33° C | 54% | 1016.9 hPa | 0 mm | - | - | - |
| 1788151335 | 28.33° C | 54% | 1016.9 hPa | 0 mm | - | - | - |
| 1788150735 | 28.33° C | 54% | 1016.8 hPa | 0 mm | - | - | - |
| 1788150134 | 28.33° C | 54% | 1016.8 hPa | 0 mm | - | - | - |
| 1788149533 | 28.89° C | 55% | 1016.8 hPa | 0 mm | - | - | - |
| 1788148933 | 28.89° C | 54% | 1016.7 hPa | 0 mm | - | - | - |
| 1788148395 | 28.89° C | 55% | 1016.6 hPa | 0 mm | - | - | - |
| 1788147732 | 28.89° C | 55% | 1016.6 hPa | 0 mm | - | - | - |
* Rain latest hour (hover to see other rain measurements)
** Current wind speed in m/s (hover to see current wind gust speed)